Location: �clusier
(49.9361°N, 2.7869°E)
Time: 16:23:32
(UTC+00:00)

NOAA 13 - Pass Details

Date: 29 January 2022
Orbit: 842 x 857 km, 98.5° (Epoch: 19 May)

Event Time Altitude Azimuth Distance (km) Brightness Sun altitude
Rises 05:35:59 0° 10° (N) 3,425 7.9 -17.7°
Reaches altitude 10° 05:38:27 10° 4° (N) 2,488 7.1 -17.4°
Maximum altitude 05:43:38 44° 294° (WNW) 1,172 5.0 -16.5°
Drops below altitude 10° 05:48:49 10° 224° (SW) 2,482 6.8 -15.7°
Sets 05:51:17 0° 218° (SW) 3,416 7.6 -15.3°
